INMARSAT 3-F3

导读

INMARSAT 3-F3是国际海事卫星组织第三代通信卫星,由洛克希德·马丁公司研制,于1996年12月18日,在美国卡纳维拉尔角太空军基地搭载宇宙神2A运载火箭发射升空。卫星定位于地球静止轨道,设计工作寿命13年,发射质量约2068千克,轨道高度约35800千米,轨道倾角9.2°。它主要为全球海上船舶、航空及陆地用户提供稳定的海事通信、遇险搜救等服务,是全球海事通信网络的重要组成部分,对全球航运安全保障和远洋通信能力提升起到关键作用。

基本信息
目录编号:
24674
目录名称:
INMARSAT 3-F3
国际标识:
1996-070A
轨道中心:
EARTH
卫星名称:
INMARSAT 3-F3
卫星全名:
--
卫星状态:
在轨 (已飞行10768 天)
发射日期:
1996-12-18 UTC
国别 :
(Inmarsat)
星等 :
--
轨道信息
数据来源 国际轨道数据 AOE轨道数据
星历时间 2026-06-12T04:00:48+0800
22小时前
查看轨道信息
2026-06-11T02:00:00+0800
2天前
查看轨道信息
半长轴 42246.757km 42246.955km
偏心率 0.0003469 0.0003507
轨道倾角 10.307° 10.305°
近地点辐角 17.962° 16.709°
升交点赤经 49.706° 49.716°
平近点角 180.824° 151.935°
近地点 35853.964km 35854.001km
远地点 35883.276km 35883.635km
周期 1440.289分钟 1440.300分钟
每日圈数 0.999799 0.999792
详细信息
使用方式:
暂无
2D轨道图
3D轨道图
轨道高度分析图
轨道倾角分析图
轨道综合分析图
查看轨道综合分析图